TimeEST,TemperatureF,Dew PointF,Humidity,Sea Level PressureIn,VisibilityMPH,Wind Direction,Wind SpeedMPH,Gust SpeedMPH,PrecipitationIn,Events,Conditions,WindDirDegrees,DateUTC
12:53 AM,19.9,9.0,62,30.16,10.0,West,6.9,-,N/A,,Overcast,270,2013-01-21 05:53:00
1:53 AM,19.9,8.1,60,30.14,10.0,West,9.2,-,N/A,,Overcast,270,2013-01-21 06:53:00
2:53 AM,19.9,8.1,60,30.14,10.0,West,8.1,-,N/A,,Overcast,270,2013-01-21 07:53:00
3:53 AM,19.0,8.1,62,30.12,10.0,West,11.5,-,N/A,,Overcast,280,2013-01-21 08:53:00
4:53 AM,19.0,8.1,62,30.10,10.0,West,10.4,-,N/A,,Overcast,260,2013-01-21 09:53:00
5:53 AM,19.0,7.0,59,30.09,10.0,West,9.2,-,N/A,,Overcast,270,2013-01-21 10:53:00
6:53 AM,19.0,7.0,59,30.08,10.0,WSW,9.2,-,N/A,,Overcast,250,2013-01-21 11:53:00
7:53 AM,19.0,8.1,62,30.06,10.0,WSW,9.2,-,N/A,,Overcast,250,2013-01-21 12:53:00
8:53 AM,19.9,9.0,62,30.06,10.0,SW,11.5,-,N/A,,Overcast,230,2013-01-21 13:53:00
9:53 AM,19.9,9.0,62,30.04,10.0,West,15.0,-,N/A,,Overcast,270,2013-01-21 14:53:00
10:16 AM,19.4,12.2,74,30.00,2.5,West,12.7,-,0.00,Snow,Light Snow,270,2013-01-21 15:16:00
10:26 AM,19.4,12.2,74,30.00,1.5,West,11.5,-,0.00,Snow,Light Snow,280,2013-01-21 15:26:00
10:47 AM,19.4,12.2,74,30.00,3.0,West,10.4,-,0.00,Snow,Light Snow,260,2013-01-21 15:47:00
10:53 AM,21.0,12.0,68,30.03,8.0,West,11.5,-,0.00,,Overcast,260,2013-01-21 15:53:00
11:00 AM,21.2,10.4,63,30.00,10.0,West,15.0,-,N/A,,Overcast,260,2013-01-21 16:00:00
11:09 AM,21.2,6.8,54,30.00,10.0,West,18.4,24.2,N/A,,Overcast,270,2013-01-21 16:09:00
11:53 AM,21.0,6.1,53,30.01,10.0,West,13.8,23.0,N/A,,Mostly Cloudy,280,2013-01-21 16:53:00
12:53 PM,21.0,5.0,50,29.99,10.0,West,19.6,29.9,0.00,,Overcast,270,2013-01-21 17:53:00
1:53 PM,21.0,6.1,53,29.99,8.0,West,15.0,27.6,0.00,Snow,Light Snow,270,2013-01-21 18:53:00
2:53 PM,19.9,3.0,48,30.00,10.0,West,21.9,31.1,0.00,,Mostly Cloudy,280,2013-01-21 19:53:00
3:25 PM,19.4,12.2,74,29.98,1.8,WNW,18.4,32.2,0.00,Snow,Light Snow,300,2013-01-21 20:25:00
3:32 PM,17.6,10.4,73,29.98,0.8,WNW,18.4,26.5,0.00,Snow,Light Snow,290,2013-01-21 20:32:00
3:53 PM,17.1,8.1,68,30.03,3.0,West,17.3,24.2,0.00,Snow,Light Snow,270,2013-01-21 20:53:00
4:39 PM,17.6,5.0,58,30.00,10.0,West,15.0,26.5,0.00,,Scattered Clouds,280,2013-01-21 21:39:00
4:53 PM,17.1,6.1,62,30.05,10.0,West,13.8,24.2,0.00,,Scattered Clouds,280,2013-01-21 21:53:00
5:10 PM,15.8,6.8,68,30.01,2.5,West,15.0,25.3,0.00,Snow,Light Snow,280,2013-01-21 22:10:00
5:18 PM,15.8,5.0,62,30.01,9.0,West,18.4,27.6,0.00,,Scattered Clouds,280,2013-01-21 22:18:00
5:53 PM,16.0,7.0,68,30.07,3.0,West,16.1,28.8,0.00,Snow,Light Snow,280,2013-01-21 22:53:00
5:56 PM,15.8,8.6,73,30.03,1.8,West,13.8,-,0.00,Snow,Light Snow,270,2013-01-21 22:56:00
6:10 PM,15.8,6.8,68,30.03,3.0,West,11.5,23.0,0.00,Snow,Light Snow,280,2013-01-21 23:10:00
6:43 PM,15.8,6.8,68,30.04,2.5,West,21.9,26.5,0.00,Snow,Light Snow,280,2013-01-21 23:43:00
6:51 PM,14.0,6.8,73,30.04,1.0,WNW,16.1,28.8,0.00,Snow,Light Snow,290,2013-01-21 23:51:00
6:53 PM,14.0,7.0,74,30.08,1.2,WNW,16.1,28.8,0.00,Snow,Light Snow,290,2013-01-21 23:53:00
6:58 PM,14.0,6.8,73,30.04,3.0,WNW,13.8,25.3,0.00,Snow,Light Snow,290,2013-01-21 23:58:00
7:13 PM,15.8,3.2,58,30.04,10.0,West,13.8,26.5,0.00,,Overcast,280,2013-01-22 00:13:00
7:33 PM,14.0,6.8,73,30.05,2.0,West,18.4,27.6,0.00,Snow,Light Snow,280,2013-01-22 00:33:00
7:40 PM,14.0,8.6,79,30.05,1.5,West,15.0,26.5,0.00,Snow,Light Snow,280,2013-01-22 00:40:00
7:44 PM,14.0,6.8,73,30.05,2.0,West,11.5,-,0.00,Snow,Light Snow,280,2013-01-22 00:44:00
7:53 PM,14.0,6.1,71,30.09,9.0,West,15.0,21.9,0.00,,Overcast,280,2013-01-22 00:53:00
8:36 PM,12.2,6.8,79,30.06,4.0,West,15.0,21.9,0.00,Snow,Light Snow,280,2013-01-22 01:36:00
8:53 PM,12.9,3.9,67,30.11,4.0,West,17.3,24.2,0.00,Snow,Light Snow,280,2013-01-22 01:53:00
9:01 PM,12.2,5.0,73,30.07,1.8,WNW,16.1,24.2,0.00,Snow,Light Snow,290,2013-01-22 02:01:00
9:06 PM,12.2,3.2,67,30.07,3.0,WNW,18.4,24.2,0.00,Snow,Light Snow,290,2013-01-22 02:06:00
9:25 PM,12.2,1.4,62,30.08,9.0,WNW,20.7,29.9,0.00,Snow,Light Snow,290,2013-01-22 02:25:00
9:53 PM,12.0,-0.0,59,30.12,10.0,West,18.4,26.5,0.00,,Mostly Cloudy,280,2013-01-22 02:53:00
10:05 PM,10.4,-0.4,62,30.08,10.0,West,15.0,27.6,N/A,,Mostly Cloudy,280,2013-01-22 03:05:00
10:15 PM,10.4,-0.4,62,30.08,10.0,WNW,18.4,25.3,N/A,,Scattered Clouds,290,2013-01-22 03:15:00
10:53 PM,10.9,-0.9,59,30.13,9.0,West,16.1,26.5,N/A,,Mostly Cloudy,280,2013-01-22 03:53:00
11:53 PM,10.9,-0.9,59,30.14,10.0,West,17.3,25.3,0.00,,Overcast,270,2013-01-22 04:53:00